[[{"header":{"parameterUnit":"m.s-1","parameterCategory":1,"la1":30.2991,"la2":30.254,"lo1":-89.0895,"lo2":-89.0444,"dy":0.0017,"dx":0.0017,"nx":28,"ny":28,"refTime":"2025-03-25T09:00:00:Z","depth":0,"parameterNumber":2,"parameterNumberName":"U-component_of_WINDS"},"data":[0,0,0,0,0,0,0,0,0,0,0,0,0,0,0,0,0,0,0,0,0,0,0,0,0,0,0,0,0,0,0,0,0,0,0,0,0,0,0,0,0,0,0,0,0,0,0,0,0,0,0,0,0,0,0,0,0,0,-3.7677,-3.7677,0,-3.7678,-3.7678,-3.7678,-3.7528,-3.7524,-3.752,-3.7516,-3.7519,-3.7523,-3.7526,0,0,0,0,0,0,0,0,0,0,0,0,0,-3.7546,-3.7549,-3.7677,-3.7677,-3.7677,-3.7678,-3.7678,-3.7678,-3.7529,-3.7524,-3.7519,-3.7514,-3.7518,-3.7522,-3.7527,0,0,0,0,0,0,0,0,0,0,0,0,0,-3.7581,-3.755,-3.7677,-3.7602,-3.7596,-3.7678,-3.7678,-3.7678,-3.753,-3.7524,-3.7518,-3.7512,-3.7516,-3.7522,-3.7527,-3.7681,0,0,-3.7545,-3.7547,0,0,0,0,0,0,0,0,-3.7579,-3.7586,-3.7613,-3.7607,-3.76,-3.7596,-3.7633,-3.7679,-3.7531,-3.7555,-3.7516,-3.7509,-3.755,-3.7552,-3.7566,-3.7681,-3.7681,-3.7545,-3.7549,-3.7551,-3.7553,0,0,0,0,0,0,0,-3.7577,-3.7585,-3.7677,-3.7614,-3.7606,-3.7569,-3.7567,-3.7641,-3.7586,-3.7552,-3.7541,-3.7543,-3.7545,-3.756,-3.7564,-3.7681,-3.7545,-3.755,-3.7553,-3.7556,-3.7923,-3.7929,0,0,0,0,0,0,-3.7584,-3.7584,-3.7677,-3.7677,-3.7575,-3.7576,-3.7574,-3.7604,-3.7584,-3.7576,-3.7548,-3.7536,-3.7554,-3.7558,-3.7564,-3.7743,-3.7551,-3.7556,-3.7559,-3.7917,-3.7925,-3.7932,0,0,0,0,0,0,-3.7582,-3.7594,-3.7677,-3.7627,-3.7635,-3.7585,-3.7619,-3.7607,-3.7622,-3.7581,-3.7571,-3.7574,-3.7549,-3.7556,-3.7653,-3.7741,-3.7559,-3.7564,-3.7909,-3.7919,-3.7928,-3.8102,0,0,0,0,0,0,-3.7579,-3.7594,-3.7652,-3.763,-3.7638,-3.7766,-3.7624,-3.7611,-3.7632,-3.7616,-3.7603,-3.7595,-3.7545,-3.7645,-3.7659,-3.7745,-3.7568,-3.7901,-3.7914,-3.7925,-3.8088,-3.8116,-3.814,0,0,0,0,0,-3.7575,-3.7701,-3.7656,-3.7668,-3.7709,-3.7771,-3.7776,-3.7716,-3.764,-3.7697,-3.7671,-3.7596,-3.7729,-3.7657,-3.767,-3.776,-3.7896,-3.791,-3.7924,-3.8076,-3.811,-3.8139,0,0,0,0,0,0,-3.7735,-3.7697,-3.7646,-3.7769,-3.7775,-3.7746,-3.7817,-3.7754,-3.7782,-3.7766,-3.769,-3.7688,-3.7798,-3.7788,-3.7708,-3.7908,-3.7799,-3.7817,-3.791,-3.7942,-3.7967,-3.7967,-3.7573,0,0,0,0,0,-3.7785,-3.7838,-3.7802,-3.7913,-3.7919,-3.7868,-3.7893,-3.7846,-3.7849,-3.785,-3.7831,-3.7838,-3.788,-3.7911,-3.7948,-3.8086,-3.8081,-3.8154,-3.818,-3.8202,-3.8218,-3.829,-3.8322,-3.7979,-3.7979,-3.7978,0,0,-3.7888,-3.7873,-3.7912,-3.7945,-3.7944,-3.8001,-3.7871,-3.7937,-3.7978,-3.786,-3.795,-3.7937,-3.7939,-3.8057,-3.8108,-3.8053,-3.8312,-3.822,-3.8238,-3.8242,-3.8308,-3.8341,-3.837,-3.7988,-3.7987,-3.7985,0,0,-3.8105,-3.8099,-3.8192,-3.8193,-3.8193,-3.8158,-3.8181,-3.8162,-3.8148,-3.8237,-3.815,-3.8199,-3.8275,-3.8279,-3.8292,-3.8511,-3.8443,-3.8526,-3.8662,-3.8733,-3.876,-3.8784,-3.8862,-3.8891,-3.8542,-3.8543,-3.8543,0,-3.8233,-3.8315,-3.8247,-3.8319,-3.8336,-3.8232,-3.8325,-3.833,-3.8343,-3.8357,-3.8295,-3.8388,-3.8382,-3.8499,-3.8553,-3.8567,-3.859,-3.8527,-3.8762,-3.8785,-3.8806,-3.8879,-3.8909,-3.8553,-3.8551,-3.855,-3.8549,0,-3.8473,-3.8531,-3.8606,-3.862,-3.8646,-3.8728,-3.8673,-3.8708,-3.8659,-3.8631,-3.8723,-3.8712,-3.8746,-3.877,-3.8723,-3.8882,-3.8847,-3.8775,-3.8664,-3.885,-3.8918,-3.8945,-3.8567,-3.8563,-3.856,-3.8558,0,0,-3.879,-3.8766,-3.8795,-3.88,-3.8792,-3.8836,-3.8914,-3.8946,-3.8977,-3.8989,-3.9053,-3.912,-3.9052,-3.9067,-3.9019,-3.9082,-3.9256,-3.9001,-3.9,-3.9049,-3.943,-3.9485,-3.9519,-3.9211,-3.9216,-3.922,-3.943,0,-3.9,-3.9131,-3.9072,-3.921,-3.9263,-3.9164,-3.9232,-3.9235,-3.9211,-3.9253,-3.9226,-3.9275,-3.9183,-3.9191,-3.9248,-3.9223,-3.9332,-3.9207,-3.9269,-3.9272,-3.9272,-3.9554,-3.9612,-3.9811,-3.9456,-3.9461,-3.9464,0,-3.9262,-3.9285,-3.9428,-3.941,-3.943,-3.9492,-3.9517,-3.9558,-3.956,-3.9538,-3.9555,-3.9493,-3.9568,-3.9459,-3.9561,-3.9478,-3.95,-3.9492,-3.9498,-3.9501,-3.9379,-3.9565,-3.9873,-3.9903,-3.9505,-3.9502,-3.9499,0,-3.948,-3.9546,-3.964,-3.9647,-3.9629,-3.9675,-3.967,-3.9665,-3.9689,-3.9711,-3.9725,-3.9756,-3.9773,-3.9799,-3.9747,-3.9672,-3.9857,-3.9743,-3.9842,-3.9843,-3.9885,-3.9883,-4.0201,-3.99,-3.99,-3.9899,-3.9898,0,-3.972,-3.9811,-3.9737,-3.9795,-3.9894,-3.9826,-3.9927,-3.991,-3.9908,-3.9961,-3.9878,-3.9929,-3.9858,-3.9903,-3.9863,-3.9955,-3.9963,-3.9948,-3.9936,-3.9955,-3.9957,-3.9969,-3.9953,-3.9907,-3.9905,-3.9904,-3.9902,0,-3.9979,-3.9933,-4.0029,-4.0004,-4.0,-4.0075,-4.0053,-4.0106,-4.0076,-4.0145,-4.0157,-4.0111,-4.016,-4.0111,-4.0157,-4.013,-4.0252,-4.0221,-4.0252,-4.0243,-4.0344,-4.0335,-4.068,-4.0722,-4.0395,-4.0398,-4.0401,0,-4.0136,-4.0203,-4.0186,-4.0215,-4.0215,-4.0264,-4.0287,-4.0223,-4.025,-4.0257,-4.031,-4.0351,-4.0381,-4.0463,-4.0434,-4.0469,-4.0437,-4.0556,-4.0442,-4.0459,-4.0439,-4.0436,-4.0442,-4.0579,-4.0583,-4.0586,-4.0589,0,-4.0418,-4.0392,-4.0428,-4.0457,-4.0487,-4.0507,-4.052,-4.0549,-4.0483,-4.0518,-4.0567,-4.059,-4.0637,-4.0679,-4.0705,-4.07,-4.0634,-4.0625,-4.0649,-4.0669,-4.0685,-4.0678,-4.0315,-4.0617,-4.0614,-4.0612,-4.0611,-4.0609,-4.063,-4.0686,-4.0682,-4.0725,-4.0729,-4.0743,-4.0791,-4.0768,-4.0807,-4.0839,-4.08,-4.086,-4.0859,-4.0887,-4.089,-4.0936,-4.0886,-4.0922,-4.0931,-4.0941,-4.0956,-4.0678,-4.0941,-4.094,-4.0939,-4.0938,-4.0938,0,-4.0908,-4.0901,-4.0941,-4.0962,-4.0997,-4.0931,-4.0943,-4.0976,-4.1029,-4.1035,-4.1066,-4.1122,-4.1163,-4.1137,-4.1172,-4.1214,-4.1185,-4.1225,-4.1222,-4.1221,-4.0998,-4.0973,-4.1249,-4.1248,-4.1248,-4.1248,-4.1248,-4.1248,-4.1056,-4.1147,-4.1121,-4.1212,-4.1204,-4.1262,-4.1274,-4.1287,-4.1291,-4.1357,-4.139,-4.1373,-4.1366,-4.14,-4.1435,-4.1426,-4.1443,-4.1495,-4.1476,-4.1268,-4.1237,-4.1208,-4.1184,-4.1499,-4.1499,-4.1695,-4.1696,-4.1698]},{"header":{"parameterUnit":"m.s-1","parameterCategory":1,"la1":30.2991,"la2":30.254,"lo1":-89.0895,"lo2":-89.0444,"dy":0.0017,"dx":0.0017,"nx":28,"ny":28,"refTime":"2025-03-25T09:00:00:Z","depth":0,"parameterNumber":3,"parameterNumberName":"V-component_of_WINDS"},"data":[0,0,0,0,0,0,0,0,0,0,0,0,0,0,0,0,0,0,0,0,0,0,0,0,0,0,0,0,0,0,0,0,0,0,0,0,0,0,0,0,0,0,0,0,0,0,0,0,0,0,0,0,0,0,0,0,0,0,-0.7705,-0.7706,0,-0.7775,-0.7776,-0.7777,-0.7814,-0.7814,-0.7814,-0.7814,-0.7886,-0.7888,-0.789,0,0,0,0,0,0,0,0,0,0,0,0,0,-0.7601,-0.7603,-0.7705,-0.7706,-0.7707,-0.7775,-0.7776,-0.7777,-0.7814,-0.7814,-0.7814,-0.7814,-0.7885,-0.7887,-0.789,0,0,0,0,0,0,0,0,0,0,0,0,0,-0.7656,-0.7604,-0.7705,-0.7733,-0.7736,-0.7775,-0.7776,-0.7777,-0.7814,-0.7814,-0.7814,-0.7814,-0.7885,-0.7887,-0.789,-0.7906,0,0,-0.7899,-0.79,0,0,0,0,0,0,0,0,-0.7653,-0.766,-0.7728,-0.7731,-0.7735,-0.7786,-0.7766,-0.782,-0.7814,-0.7784,-0.7814,-0.7814,-0.7853,-0.7858,-0.7871,-0.7909,-0.7912,-0.7899,-0.7901,-0.7902,-0.7903,0,0,0,0,0,0,0,-0.7649,-0.7657,-0.7733,-0.7729,-0.7733,-0.7742,-0.775,-0.7777,-0.7817,-0.7787,-0.779,-0.7797,-0.7854,-0.7868,-0.7873,-0.7913,-0.7899,-0.7901,-0.7903,-0.7904,-0.7966,-0.7966,0,0,0,0,0,0,-0.7641,-0.7654,-0.7731,-0.7735,-0.7694,-0.7744,-0.7753,-0.7769,-0.7817,-0.7824,-0.7797,-0.7799,-0.7863,-0.787,-0.7876,-0.7896,-0.7902,-0.7904,-0.7906,-0.7966,-0.7966,-0.7966,0,0,0,0,0,0,-0.7639,-0.7648,-0.7728,-0.7695,-0.7706,-0.7746,-0.7764,-0.7771,-0.7785,-0.7825,-0.7832,-0.7804,-0.7864,-0.7872,-0.7898,-0.7899,-0.7906,-0.7908,-0.7966,-0.7966,-0.7966,-0.7938,0,0,0,0,0,0,-0.7636,-0.7647,-0.7653,-0.7695,-0.7708,-0.7749,-0.7764,-0.7772,-0.7789,-0.7792,-0.7833,-0.784,-0.7864,-0.7893,-0.79,-0.7903,-0.791,-0.7967,-0.7966,-0.7966,-0.7939,-0.7937,-0.7936,0,0,0,0,0,-0.7632,-0.7643,-0.7654,-0.7663,-0.7717,-0.7749,-0.7756,-0.7784,-0.7789,-0.7796,-0.7822,-0.7839,-0.7898,-0.7896,-0.7904,-0.7908,-0.7967,-0.7966,-0.7966,-0.794,-0.7938,-0.7936,0,0,0,0,0,0,-0.7601,-0.7649,-0.7661,-0.7686,-0.7713,-0.7755,-0.7765,-0.7781,-0.7807,-0.7808,-0.7842,-0.785,-0.7873,-0.7893,-0.789,-0.7925,-0.7934,-0.7935,-0.7911,-0.7909,-0.7907,-0.7902,-0.7913,0,0,0,0,0,-0.7597,-0.7619,-0.766,-0.7678,-0.7691,-0.7725,-0.774,-0.7759,-0.7788,-0.78,-0.7828,-0.7855,-0.788,-0.7896,-0.7921,-0.7942,-0.7951,-0.7949,-0.7947,-0.7945,-0.7946,-0.7958,-0.7957,-0.7966,-0.7966,-0.7966,0,0,-0.7589,-0.7618,-0.763,-0.7672,-0.7695,-0.7717,-0.7735,-0.7757,-0.7773,-0.7803,-0.7829,-0.785,-0.7883,-0.7907,-0.7918,-0.7924,-0.7946,-0.7945,-0.7944,-0.7946,-0.7958,-0.7957,-0.7956,-0.7966,-0.7966,-0.7966,0,0,-0.7586,-0.761,-0.7628,-0.765,-0.7684,-0.7707,-0.7711,-0.775,-0.7765,-0.7791,-0.7814,-0.7834,-0.7876,-0.7898,-0.7915,-0.7918,-0.7934,-0.7925,-0.7916,-0.7927,-0.7926,-0.7926,-0.7926,-0.7926,-0.7926,-0.7926,-0.7926,0,-0.7572,-0.7606,-0.7634,-0.7655,-0.7673,-0.77,-0.7717,-0.7738,-0.7779,-0.779,-0.7795,-0.7848,-0.7872,-0.7901,-0.7901,-0.7914,-0.7919,-0.7921,-0.7924,-0.7924,-0.7924,-0.7925,-0.7925,-0.7925,-0.7925,-0.7925,-0.7925,0,-0.7586,-0.7609,-0.7619,-0.7657,-0.7676,-0.7695,-0.7726,-0.7741,-0.7757,-0.7779,-0.7805,-0.7835,-0.7866,-0.7874,-0.7891,-0.7904,-0.7907,-0.7918,-0.7927,-0.7921,-0.7922,-0.7923,-0.7923,-0.7923,-0.7924,-0.7924,0,0,-0.7567,-0.762,-0.7623,-0.764,-0.7679,-0.7697,-0.7716,-0.7746,-0.7758,-0.7785,-0.7802,-0.7836,-0.7846,-0.7865,-0.7884,-0.7894,-0.7893,-0.7904,-0.7905,-0.79,-0.7909,-0.7901,-0.7901,-0.7904,-0.7904,-0.7905,-0.7906,0,-0.7569,-0.7606,-0.7632,-0.7658,-0.7679,-0.7704,-0.7721,-0.7746,-0.7767,-0.7787,-0.781,-0.7833,-0.7845,-0.7856,-0.7867,-0.7891,-0.7896,-0.7891,-0.792,-0.7921,-0.7911,-0.7902,-0.7893,-0.7893,-0.7907,-0.7907,-0.7907,0,-0.7577,-0.7602,-0.7631,-0.7666,-0.7676,-0.7691,-0.7719,-0.7739,-0.7767,-0.7781,-0.7801,-0.7821,-0.7842,-0.7849,-0.7879,-0.7875,-0.7888,-0.7902,-0.7902,-0.7906,-0.7914,-0.7905,-0.7894,-0.7894,-0.7909,-0.7908,-0.7908,0,-0.756,-0.7601,-0.7623,-0.7636,-0.7678,-0.7688,-0.7706,-0.7735,-0.775,-0.7775,-0.7786,-0.7813,-0.7828,-0.7848,-0.7874,-0.7877,-0.79,-0.791,-0.7912,-0.7911,-0.7916,-0.7916,-0.7907,-0.7925,-0.7925,-0.7925,-0.7925,0,-0.756,-0.7576,-0.7615,-0.7629,-0.7647,-0.7676,-0.7693,-0.7713,-0.7738,-0.7756,-0.7779,-0.7795,-0.7828,-0.7848,-0.7868,-0.7889,-0.7896,-0.7907,-0.7912,-0.7905,-0.7904,-0.7914,-0.7915,-0.7925,-0.7925,-0.7925,-0.7925,0,-0.7544,-0.7571,-0.7596,-0.7633,-0.7643,-0.7655,-0.7686,-0.77,-0.7721,-0.7742,-0.7749,-0.7782,-0.7806,-0.7834,-0.7867,-0.7881,-0.79,-0.7908,-0.789,-0.7893,-0.7893,-0.7893,-0.7892,-0.7893,-0.7909,-0.7909,-0.7909,0,-0.7542,-0.7555,-0.7593,-0.7606,-0.7623,-0.7644,-0.766,-0.7688,-0.7703,-0.7736,-0.7746,-0.7771,-0.7794,-0.7831,-0.7858,-0.7883,-0.7892,-0.7889,-0.7896,-0.7887,-0.7891,-0.789,-0.7891,-0.7888,-0.7887,-0.7887,-0.7887,0,-0.7536,-0.7548,-0.757,-0.7596,-0.7614,-0.7636,-0.7659,-0.7669,-0.7701,-0.7717,-0.7742,-0.7759,-0.7792,-0.7817,-0.7846,-0.7864,-0.7881,-0.7884,-0.7886,-0.7879,-0.7868,-0.7873,-0.7885,-0.7885,-0.7885,-0.7885,-0.7885,-0.7885,-0.7527,-0.7539,-0.7567,-0.7591,-0.761,-0.7631,-0.7645,-0.7667,-0.7688,-0.7717,-0.7732,-0.7756,-0.7784,-0.7823,-0.7841,-0.786,-0.7865,-0.7868,-0.7869,-0.7869,-0.7867,-0.7865,-0.7865,-0.7865,-0.7865,-0.7865,-0.7865,0,-0.7522,-0.7541,-0.7562,-0.7593,-0.761,-0.7624,-0.7649,-0.7663,-0.7684,-0.7708,-0.7729,-0.7756,-0.778,-0.7808,-0.7834,-0.7843,-0.7852,-0.7849,-0.7849,-0.7853,-0.786,-0.7856,-0.7842,-0.7842,-0.7842,-0.7842,-0.7842,-0.7842,-0.7522,-0.7542,-0.7557,-0.7588,-0.7607,-0.763,-0.7643,-0.7662,-0.7681,-0.771,-0.773,-0.7748,-0.7773,-0.78,-0.7823,-0.783,-0.7838,-0.7834,-0.7843,-0.785,-0.7852,-0.7854,-0.785,-0.7835,-0.7835,-0.7834,-0.7834,-0.7834]}]]